User: anonymous   Login
Location: Boiro
(42.6475°N, 8.8834°W)
Time: 07:35:46
(UTC+01:00)
Language:

PRISM - Orbit

View from above orbital plane
View from above orbital plane
View from above satellite
View from above satellite

Ground track
Ground track

The orbit data is extracted from the following two-line orbital elements,

1 33493U 09002B   22027.83756468  .00001601  00000-0  13957-3 0  9999
2 33493  98.2186   6.6586 0012856 266.0830  93.8921 14.98407566707923
Epoch (UTC): 27 January 2022 20:06:05
Eccentricity: 0.0012856
inclination: 98.2186°
perigee height: 563 km
apogee height: 581 km
right ascension of ascending node: 6.6586°
argument of perigee: 266.0830°
revolutions per day: 14.98407566
mean anomaly at epoch: 93.8921°
orbit number at epoch: 70792

The dashed part of the orbit path shows where the satellite is in the earth's shadow,  

DLR